Skip Page Navigation
NASA JPL Caltech
NASA Logo - Jet Propulsion Laboratory + View the NASA Portal
+ Center for Near-Earth Object Studies
JPL Home Earth Solar System Stars & Galaxies Technology
JPL Solar System Dynamics
BODIES ORBITS EPHEMERIDES TOOLS PHYSICAL DATA DISCOVERY FAQ SITE MAP
IMPORTANT: The SSD Announcement email list is now available. Major changes are coming in the near future, including possible hostname and/or URL changes. To be notified of such changes, subscribe to this email list.

Please visit this page for more details.


JPL Small-Body Database Browser
Search: [ help ]  
183276 (2002 TT260)
Classification: Main-belt Asteroid          SPK-ID: 2183276
Ephemeris | Orbit Diagram | Orbital Elements | Mission Design | Physical Parameters | Discovery Circumstances ]

[ show orbit diagram ]
Orbital Elements at Epoch 2458600.5 (2019-Apr-27.0) TDB
Reference: JPL 13 (heliocentric ecliptic J2000)
 Element Value Uncertainty (1-sigma)   Units 
e .3012681731733629 6.0667e-08  
a 2.622610115842246 1.4719e-08 au
q 1.832501157296471 1.5765e-07 au
i 31.57248485413036 9.3079e-06 deg
node 52.78664804498072 1.4432e-05 deg
peri 52.14755339299635 3.8453e-05 deg
M 292.6060358128274 2.1204e-05 deg
tp 2458890.913985524999
(2020-Feb-11.41398552)
9.076e-05 TDB
period 1551.31154621854
4.25
1.306e-05
3.576e-08
d
yr
n .2320617034518515 1.9537e-09 deg/d
Q 3.412719074388022 1.9154e-08 au
  Orbit Determination Parameters
   # obs. used (total)      407  
   data-arc span      7571 days (20.73 yr)  
   first obs. used      1999-03-16  
   last obs. used      2019-12-07  
   planetary ephem.      DE431  
   SB-pert. ephem.      SB431-N16  
   condition code      0  
   norm. resid. RMS      .52569  
   source      ORB  
   producer      Otto Matic  
   solution date      2019-Dec-14 13:26:32  

Additional Information
 Earth MOID = .945106 au 
 Jupiter MOID = 2.2704 au 
 T_jup = 3.138 
[ show covariance matrix ]

Ephemeris | Orbit Diagram | Orbital Elements | Mission Design | Physical Parameters | Discovery Circumstances ]

Physical Parameter Table
Parameter Symbol Value Units Sigma Reference Notes
absolute magnitude H 15.6   n/a MPO502989  
diameter diameter 2.224 km 0.448 urn:nasa:pds:neowise_diameters_albedos::2.0[mainbelt] (http://adsabs.harvard.edu/abs/2016AJ....152...63N)  
geometric albedo albedo 0.225   0.111 urn:nasa:pds:neowise_diameters_albedos::2.0[mainbelt] (http://adsabs.harvard.edu/abs/2016AJ....152...63N)  

183276 (2002 TT260)          Discovered 2002-Oct-09 by LINEAR at Socorro
Reference: 20080420/Numbers.arcLast Updated: 2008-04-23
Ephemeris | Orbit Diagram | Orbital Elements | Mission Design | Physical Parameters | Discovery Circumstances ]
ABOUT SSD CREDITS/AWARDS PRIVACY/COPYRIGHT GLOSSARY LINKS
FirstGov 2020-Jan-18 23:58 UT
(server date/time)  
NASA Home Page
Site Manager:   Ryan S. Park
Webmaster  Alan B. Chamberlin